This demonstration page uses our WeatherBlox Daily Observations layout. Learn more.

Left ArrowRight Arrow

31.84235, -102.49876

Hourly Observations for August 16, 2015

Temp ( °F °C ) Dew Point ( °F °C ) Humidity (%) Winds ( mph kmh ) Pressure ( in mb ) Visibility ( mi km ) Precip ( " mm )
12:53 am 00:53 Clear 80 26.7 64 17.8 58 58 S 10 17 29.95 1014 10 16 0.00 0.00
1:53 am 01:53 Clear 79 26.1 64 17.8 60 60 SSE 8 13 29.94 1014 10 16 0.00 0.00
2:53 am 02:53 Clear 78 25.6 65 18.3 64 64 S 9 15 29.92 1013 10 16 0.00 0.00
3:53 am 03:53 Clear 77 25 66 18.9 69 69 SSE 8 13 29.92 1013 10 16 0.00 0.00
4:53 am 04:53 Clear 76 24.4 66 18.9 72 72 SSE 12 19 29.90 1012 10 16 0.00 0.00
5:53 am 05:53 Clear 76 24.4 65 18.3 69 69 S 7 11 29.91 1013 10 16 0.00 0.00
6:53 am 06:53 Clear 75 23.9 65 18.3 71 71 S 6 9 29.92 1013 10 16 0.00 0.00
7:53 am 07:53 Sunny 75 23.9 65 18.3 71 71 SSE 5 7 29.94 1014 9 14 0.00 0.00
8:06 am 08:06 Mostly Sunny 76 24.4 65 18.3 69 69 SSE 8 13 29.94 1014 9 14 0.00 0.00
8:53 am 08:53 Sunny 79 26.1 64 17.8 60 60 S 9 15 29.93 1014 10 16 0.00 0.00
9:53 am 09:53 Sunny 82 27.8 64 17.8 55 55 S 9 15 29.93 1014 10 16 0.00 0.00
10:53 am 10:53 Sunny 86 30 63 17.2 46 46 S 10 17 29.94 1014 10 16 0.00 0.00
11:53 am 11:53 Sunny 88 31.1 62 16.7 42 42 SSE 12 19 29.94 1014 10 16 0.00 0.00
12:53 pm 12:53 Sunny 92 33.3 59 15 33 33 VRB 5 7 29.91 1013 10 16 0.00 0.00
1:53 pm 13:53 Mostly Cloudy 92 33.3 57 13.9 31 31 S 9 15 29.90 1013 10 16 0.00 0.00
2:53 pm 14:53 Mostly Cloudy 93 33.9 57 13.9 30 30 ESE 13 20 29.87 1012 10 16 0.00 0.00
3:53 pm 15:53 Mostly Cloudy 94 34.4 53 11.7 25 25 E 13 20 29.85 1011 10 16 0.00 0.00
4:53 pm 16:53 Sunny 94 34.4 51 10.6 23 23 ESE 9 15 29.83 1010 10 16 0.00 0.00
5:53 pm 17:53 Sunny 92 33.3 52 11.1 26 26 ESE 9 15 29.84 1010 10 16 0.00 0.00
6:53 pm 18:53 Sunny 94 34.4 47 8.3 20 20 SSE 12 19 29.82 1010 10 16 0.00 0.00
7:53 pm 19:53 Mostly Sunny 92 33.3 50 10 24 24 ESE 13 20 29.82 1010 10 16 0.00 0.00
8:53 pm 20:53 Clear 89 31.7 50 10 26 26 ESE 7 11 29.83 1010 10 16 0.00 0.00
9:53 pm 21:53 Mostly Cloudy 86 30 50 10 29 29 ESE 8 13 29.85 1011 10 16 0.00 0.00
10:53 pm 22:53 Clear 85 29.4 53 11.7 33 33 ESE 8 13 29.86 1011 10 16 0.00 0.00
11:53 pm 23:53 Clear 84 28.9 55 12.8 37 37 SSE 10 17 29.86 1011 10 16 0.00 0.00

Powered by AerisWeather